QPF
0.02 0.02 0.02 0.03 0.05 0.08 0.10 0.11 0.12 0.12 0.11 0.09 0.07 0.06 0.04 0.03 0.02 0.01 0.01 0.01 0.02 0.02 0.03 0.05 0.08 0.12 0.16 0.18 0.20 0.22 0.25 0.28 0.25 0.17 0.10 0.08 0.05 0.05 0.05 0.04 0.03 0.02 0.02
0.02 0.01 0.01 0.01 0.02 0.03 0.05 0.08 0.11 0.12 0.11 0.11 0.10 0.08 0.06 0.04 0.03 0.02 0.01 0.01 0.01 0.02 0.03 0.05 0.06 0.08 0.12 0.15 0.19 0.21 0.25 0.30 0.27 0.15 0.11 0.08 0.06 0.06 0.07 0.07 0.05 0.03 0.02
0.01 0.01 0.00 0.00 0.00 0.01 0.01 0.03 0.06 0.09 0.10 0.11 0.11 0.10 0.08 0.07 0.06 0.04 0.02 0.01 0.01 0.02 0.03 0.03 0.03 0.06 0.09 0.11 0.14 0.18 0.22 0.30 0.27 0.16 0.11 0.09 0.08 0.07 0.09 0.09 0.08 0.06 0.04
0.00 0.00 0.00 0.00 0.00 0.00 0.00 0.01 0.02 0.05 0.08 0.11 0.12 0.11 0.10 0.09 0.07 0.05 0.03 0.02 0.02 0.02 0.02 0.02 0.02 0.03 0.07 0.10 0.12 0.14 0.16 0.18 0.17 0.13 0.10 0.09 0.10 0.11 0.10 0.10 0.08 0.06 0.03
0.00 0.00 0.01 0.01 0.01 0.01 0.01 0.01 0.01 0.02 0.04 0.07 0.10 0.11 0.12 0.10 0.07 0.06 0.05 0.03 0.03 0.04 0.04 0.02 0.01 0.02 0.03 0.07 0.10 0.12 0.14 0.13 0.14 0.13 0.11 0.11 0.12 0.13 0.12 0.09 0.07 0.05 0.03
0.00 0.01 0.01 0.01 0.02 0.02 0.03 0.03 0.03 0.03 0.04 0.06 0.09 0.11 0.12 0.10 0.09 0.06 0.05 0.03 0.04 0.05 0.06 0.03 0.01 0.01 0.03 0.05 0.07 0.11 0.14 0.13 0.14 0.15 0.16 0.14 0.13 0.13 0.11 0.08 0.06 0.04 0.04
0.00 0.00 0.00 0.01 0.01 0.01 0.01 0.02 0.02 0.02 0.03 0.05 0.07 0.11 0.13 0.15 0.12 0.08 0.05 0.04 0.04 0.06 0.07 0.05 0.03 0.02 0.03 0.03 0.04 0.05 0.08 0.11 0.12 0.13 0.16 0.15 0.14 0.12 0.09 0.07 0.07 0.06 0.04
0.00 0.00 0.00 0.01 0.01 0.01 0.01 0.02 0.02 0.03 0.03 0.04 0.06 0.10 0.14 0.19 0.17 0.11 0.07 0.05 0.05 0.06 0.06 0.04 0.03 0.02 0.02 0.02 0.03 0.04 0.04 0.05 0.07 0.10 0.12 0.12 0.09 0.07 0.07 0.07 0.06 0.04 0.03
0.00 0.00 0.00 0.00 0.00 0.01 0.01 0.03 0.04 0.05 0.04 0.03 0.04 0.07 0.13 0.20 0.21 0.16 0.10 0.07 0.07 0.07 0.06 0.04 0.03 0.03 0.01 0.01 0.03 0.03 0.03 0.03 0.04 0.05 0.06 0.06 0.05 0.04 0.03 0.02 0.01 0.01 0.01
0.00 0.00 0.00 0.00 0.01 0.01 0.02 0.04 0.05 0.06 0.05 0.03 0.02 0.05 0.10 0.19 0.25 0.20 0.13 0.09 0.11 0.10 0.07 0.04 0.02 0.01 0.01 0.01 0.02 0.02 0.02 0.01 0.01 0.01 0.01 0.01 0.01 0.01 0.01 0.01 0.01 0.00 0.00
0.01 0.01 0.01 0.01 0.02 0.02 0.03 0.06 0.07 0.06 0.06 0.06 0.04 0.04 0.07 0.16 0.26 0.25 0.20 0.15 0.14 0.12 0.07 0.03 0.01 0.00 0.00 0.00 0.01 0.02 0.01 0.00 0.00 0.00 0.00 0.00 0.00 0.00 0.00 0.00 0.00 0.00 0.00
0.03 0.03 0.03 0.04 0.03 0.02 0.06 0.10 0.11 0.11 0.09 0.06 0.05 0.05 0.07 0.13 0.24 0.27 0.24 0.19 0.19 0.15 0.08 0.03 0.01 0.01 0.00 0.00 0.01 0.01 0.00 0.00 0.00 0.00 0.00 0.00 0.00 0.00 0.00 0.00 0.00 0.00 0.00
0.05 0.05 0.05 0.06 0.07 0.07 0.08 0.11 0.12 0.12 0.08 0.06 0.07 0.09 0.10 0.14 0.23 0.29 0.27 0.20 0.21 0.17 0.08 0.03 0.01 0.00 0.00 0.00 0.00 0.00 0.00 0.00 0.00 0.00 0.00 0.00 0.00 0.00 0.00 0.00 0.00 0.00 0.00
0.07 0.07 0.07 0.08 0.07 0.08 0.10 0.10 0.09 0.08 0.08 0.09 0.09 0.10 0.13 0.15 0.23 0.30 0.31 0.24 0.23 0.21 0.09 0.02 0.01 0.00 0.00 0.00 0.00 0.00 0.00 0.00 0.00 0.00 0.00 0.00 0.00 0.00 0.00 0.00 0.00 0.00 0.00
0.09 0.09 0.09 0.09 0.08 0.09 0.10 0.10 0.08 0.08 0.07 0.09 0.09 0.10 0.14 0.15 0.24 0.33 0.32 0.29 0.29 0.24 0.11 0.02 0.00 0.00 0.00 0.00 0.00 0.00 0.00 0.00 0.00 0.00 0.00 0.00 0.00 0.00 0.00 0.00 0.00 0.00 0.00
0.13 0.12 0.12 0.11 0.10 0.09 0.10 0.10 0.06 0.03 0.03 0.02 0.03 0.04 0.07 0.11 0.20 0.29 0.34 0.32 0.31 0.25 0.11 0.02 0.00 0.00 0.00 0.00 0.00 0.00 0.00 0.00 0.00 0.00 0.00 0.00 0.00 0.00 0.00 0.00 0.00 0.00 0.00
0.15 0.15 0.15 0.13 0.10 0.09 0.09 0.11 0.11 0.06 0.01 0.00 0.00 0.00 0.01 0.05 0.16 0.26 0.33 0.33 0.26 0.17 0.08 0.02 0.00 0.00 0.00 0.00 0.00 0.00 0.00 0.00 0.00 0.00 0.00 0.00 0.00 0.00 0.00 0.00 0.00 0.00 0.00
0.15 0.14 0.12 0.12 0.10 0.09 0.09 0.10 0.12 0.12 0.08 0.03 0.01 0.00 0.01 0.05 0.16 0.29 0.33 0.30 0.22 0.12 0.04 0.01 0.00 0.00 0.00 0.00 0.00 0.00 0.00 0.00 0.00 0.00 0.00 0.00 0.00 0.00 0.00 0.00 0.00 0.00 0.00
0.16 0.17 0.15 0.13 0.11 0.09 0.08 0.09 0.10 0.12 0.14 0.13 0.07 0.02 0.01 0.07 0.17 0.31 0.33 0.24 0.15 0.07 0.02 0.00 0.00 0.00 0.00 0.00 0.00 0.00 0.00 0.00 0.00 0.00 0.00 0.00 0.00 0.00 0.00 0.00 0.00 0.00 0.00
0.17 0.11 0.09 0.12 0.12 0.10 0.09 0.09 0.09 0.12 0.13 0.13 0.11 0.05 0.02 0.06 0.13 0.24 0.27 0.20 0.12 0.06 0.01 0.00 0.00 0.00 0.00 0.00 0.00 0.00 0.00 0.00 0.00 0.00 0.00 0.00 0.00 0.00 0.00 0.00 0.00 0.00 0.00
0.17 0.12 0.03 0.04 0.08 0.09 0.10 0.11 0.11 0.11 0.11 0.12 0.11 0.05 0.02 0.04 0.07 0.11 0.15 0.13 0.09 0.05 0.01 0.00 0.00 0.00 0.00 0.00 0.00 0.00 0.00 0.00 0.00 0.00 0.00 0.00 0.00 0.00 0.00 0.00 0.00 0.00 0.00
0.15 0.13 0.07 0.06 0.08 0.09 0.11 0.13 0.12 0.10 0.10 0.10 0.08 0.03 0.02 0.04 0.04 0.06 0.08 0.08 0.05 0.03 0.01 0.00 0.00 0.00 0.00 0.00 0.00 0.00 0.00 0.00 0.00 0.00 0.00 0.00 0.00 0.00 0.00 0.00 0.00 0.00 0.00
0.10 0.09 0.08 0.09 0.09 0.06 0.06 0.11 0.10 0.09 0.09 0.08 0.06 0.03 0.02 0.03 0.03 0.03 0.05 0.04 0.03 0.02 0.01 0.00 0.00 0.00 0.00 0.00 0.00 0.00 0.00 0.00 0.00 0.00 0.00 0.00 0.00 0.00 0.00 0.00 0.00 0.00 0.00
0.07 0.07 0.06 0.07 0.07 0.06 0.06 0.07 0.07 0.07 0.06 0.05 0.04 0.03 0.01 0.02 0.02 0.02 0.02 0.02 0.01 0.01 0.01 0.00 0.00 0.00 0.00 0.00 0.00 0.00 0.00 0.00 0.00 0.00 0.00 0.00 0.00 0.00 0.00 0.00 0.00 0.00 0.00
0.07 0.06 0.06 0.05 0.04 0.04 0.04 0.05 0.04 0.04 0.04 0.04 0.02 0.02 0.01 0.01 0.01 0.01 0.01 0.01 0.00 0.00 0.00 0.00 0.00 0.00 0.00 0.00 0.00 0.00 0.00 0.00 0.00 0.00 0.00 0.00 0.00 0.00 0.00 0.00 0.00 0.00 0.00
0.05 0.04 0.03 0.02 0.02 0.02 0.03 0.03 0.03 0.04 0.03 0.02 0.01 0.01 0.01 0.01 0.01 0.01 0.00 0.00 0.00 0.00 0.00 0.00 0.00 0.00 0.00 0.00 0.00 0.00 0.00 0.00 0.00 0.00 0.00 0.00 0.00 0.00 0.00 0.00 0.00 0.00 0.00
MSLP
1010.70 1010.72 1010.68 1010.55 1010.31 1009.99 1009.61 1009.20 1008.79 1008.42 1008.11 1007.88 1007.71 1007.59 1007.51 1007.44 1007.37 1007.29 1007.21 1007.12 1007.03 1006.96 1006.89 1006.84 1006.79 1006.74 1006.67 1006.59 1006.51 1006.44 1006.41 1006.45 1006.58 1006.81 1007.16 1007.63 1008.19 1008.81 1009.45 1010.07 1010.64 1011.14 1011.53
1010.71 1010.70 1010.63 1010.48 1010.24 1009.92 1009.54 1009.13 1008.72 1008.35 1008.02 1007.75 1007.53 1007.36 1007.23 1007.11 1007.00 1006.89 1006.79 1006.69 1006.60 1006.51 1006.43 1006.36 1006.28 1006.19 1006.10 1006.00 1005.91 1005.86 1005.88 1005.98 1006.19 1006.52 1006.99 1007.56 1008.21 1008.92 1009.63 1010.30 1010.92 1011.44 1011.86
1010.53 1010.46 1010.34 1010.16 1009.91 1009.60 1009.25 1008.88 1008.51 1008.16 1007.85 1007.57 1007.34 1007.14 1006.97 1006.82 1006.69 1006.56 1006.46 1006.36 1006.28 1006.21 1006.13 1006.06 1005.97 1005.87 1005.75 1005.63 1005.54 1005.49 1005.52 1005.66 1005.92 1006.32 1006.85 1007.49 1008.20 1008.95 1009.70 1010.41 1011.04 1011.59 1012.03
1010.11 1009.97 1009.79 1009.58 1009.32 1009.04 1008.74 1008.43 1008.13 1007.84 1007.58 1007.33 1007.11 1006.91 1006.72 1006.55 1006.40 1006.28 1006.18 1006.11 1006.05 1006.02 1005.98 1005.93 1005.86 1005.77 1005.66 1005.54 1005.44 1005.39 1005.42 1005.57 1005.85 1006.27 1006.81 1007.47 1008.20 1008.95 1009.70 1010.40 1011.04 1011.58 1012.04
1009.44 1009.22 1008.99 1008.74 1008.50 1008.26 1008.02 1007.80 1007.59 1007.38 1007.19 1006.99 1006.80 1006.61 1006.42 1006.25 1006.10 1005.98 1005.90 1005.86 1005.86 1005.88 1005.90 1005.92 1005.90 1005.85 1005.78 1005.68 1005.59 1005.55 1005.59 1005.73 1005.99 1006.39 1006.92 1007.54 1008.23 1008.95 1009.66 1010.32 1010.92 1011.45 1011.91
1008.56 1008.27 1007.99 1007.73 1007.50 1007.31 1007.15 1007.02 1006.90 1006.79 1006.67 1006.54 1006.39 1006.21 1006.03 1005.86 1005.71 1005.61 1005.56 1005.56 1005.62 1005.72 1005.83 1005.93 1006.00 1006.03 1006.02 1005.98 1005.93 1005.91 1005.95 1006.08 1006.32 1006.68 1007.15 1007.71 1008.33 1008.97 1009.60 1010.20 1010.74 1011.23 1011.68
1007.54 1007.21 1006.90 1006.64 1006.44 1006.29 1006.20 1006.15 1006.12 1006.10 1006.05 1005.97 1005.85 1005.70 1005.52 1005.35 1005.21 1005.12 1005.09 1005.15 1005.28 1005.45 1005.66 1005.87 1006.05 1006.18 1006.27 1006.31 1006.33 1006.36 1006.42 1006.55 1006.77 1007.08 1007.48 1007.96 1008.48 1009.02 1009.56 1010.07 1010.54 1010.98 1011.40
1006.51 1006.16 1005.84 1005.59 1005.41 1005.30 1005.26 1005.27 1005.30 1005.33 1005.34 1005.30 1005.20 1005.06 1004.89 1004.72 1004.58 1004.50 1004.51 1004.60 1004.79 1005.05 1005.36 1005.67 1005.97 1006.23 1006.43 1006.58 1006.69 1006.78 1006.89 1007.03 1007.24 1007.51 1007.85 1008.24 1008.68 1009.12 1009.55 1009.97 1010.37 1010.75 1011.13
1005.59 1005.24 1004.92 1004.68 1004.51 1004.42 1004.40 1004.44 1004.50 1004.56 1004.58 1004.56 1004.48 1004.34 1004.18 1004.01 1003.87 1003.81 1003.83 1003.96 1004.20 1004.53 1004.91 1005.33 1005.74 1006.11 1006.43 1006.70 1006.91 1007.09 1007.26 1007.44 1007.66 1007.91 1008.21 1008.54 1008.89 1009.25 1009.60 1009.93 1010.26 1010.59 1010.92
1004.85 1004.51 1004.20 1003.95 1003.77 1003.68 1003.66 1003.69 1003.74 1003.80 1003.83 1003.81 1003.73 1003.61 1003.45 1003.29 1003.16 1003.11 1003.15 1003.30 1003.57 1003.95 1004.39 1004.88 1005.38 1005.85 1006.28 1006.65 1006.97 1007.25 1007.50 1007.73 1007.98 1008.24 1008.52 1008.81 1009.11 1009.40 1009.68 1009.96 1010.23 1010.51 1010.81
1004.28 1003.95 1003.65 1003.39 1003.20 1003.07 1003.02 1003.02 1003.05 1003.08 1003.10 1003.08 1003.01 1002.90 1002.77 1002.63 1002.53 1002.49 1002.55 1002.72 1003.00 1003.39 1003.87 1004.39 1004.94 1005.48 1005.99 1006.46 1006.87 1007.24 1007.58 1007.89 1008.18 1008.47 1008.76 1009.04 1009.31 1009.56 1009.81 1010.04 1010.27 1010.52 1010.79
1003.81 1003.50 1003.19 1002.92 1002.69 1002.53 1002.43 1002.39 1002.38 1002.40 1002.41 1002.40 1002.36 1002.29 1002.19 1002.10 1002.04 1002.03 1002.11 1002.28 1002.57 1002.95 1003.42 1003.94 1004.51 1005.08 1005.64 1006.17 1006.66 1007.11 1007.53 1007.91 1008.27 1008.60 1008.91 1009.20 1009.47 1009.72 1009.94 1010.16 1010.38 1010.61 1010.87
1003.33 1003.03 1002.72 1002.43 1002.17 1001.97 1001.83 1001.74 1001.72 1001.72 1001.75 1001.77 1001.78 1001.78 1001.75 1001.73 1001.73 1001.77 1001.87 1002.04 1002.31 1002.66 1003.09 1003.58 1004.12 1004.69 1005.27 1005.83 1006.37 1006.89 1007.38 1007.83 1008.25 1008.63 1008.99 1009.30 1009.58 1009.84 1010.07 1010.28 1010.50 1010.73 1010.99
1002.72 1002.42 1002.10 1001.80 1001.52 1001.29 1001.13 1001.03 1001.00 1001.03 1001.09 1001.18 1001.27 1001.36 1001.44 1001.52 1001.59 1001.68 1001.81 1001.98 1002.22 1002.52 1002.89 1003.33 1003.81 1004.35 1004.90 1005.48 1006.05 1006.61 1007.15 1007.66 1008.14 1008.58 1008.97 1009.32 1009.63 1009.91 1010.15 1010.38 1010.62 1010.86 1011.13
1001.89 1001.59 1001.28 1000.97 1000.69 1000.47 1000.30 1000.22 1000.22 1000.30 1000.43 1000.61 1000.82 1001.03 1001.23 1001.41 1001.57 1001.73 1001.88 1002.05 1002.25 1002.50 1002.79 1003.15 1003.57 1004.04 1004.56 1005.12 1005.70 1006.29 1006.88 1007.44 1007.97 1008.45 1008.89 1009.27 1009.61 1009.91 1010.18 1010.43 1010.69 1010.96 1011.25
1000.84 1000.54 1000.24 999.96 999.70 999.50 999.38 999.34 999.40 999.55 999.79 1000.08 1000.41 1000.75 1001.07 1001.37 1001.62 1001.84 1002.02 1002.18 1002.35 1002.53 1002.75 1003.02 1003.36 1003.76 1004.24 1004.77 1005.35 1005.95 1006.56 1007.16 1007.73 1008.26 1008.73 1009.14 1009.51 1009.83 1010.13 1010.41 1010.69 1010.99 1011.31
999.66 999.37 999.10 998.85 998.64 998.49 998.43 998.46 998.60 998.84 999.18 999.59 1000.04 1000.50 1000.95 1001.34 1001.68 1001.95 1002.15 1002.30 1002.43 1002.55 1002.69 1002.88 1003.14 1003.48 1003.91 1004.42 1004.99 1005.60 1006.23 1006.86 1007.46 1008.01 1008.51 1008.95 1009.34 1009.69 1010.01 1010.32 1010.63 1010.95 1011.30
998.50 998.23 998.00 997.79 997.64 997.56 997.57 997.68 997.91 998.24 998.68 999.19 999.74 1000.31 1000.84 1001.32 1001.71 1002.02 1002.24 1002.37 1002.46 1002.52 1002.60 1002.73 1002.92 1003.21 1003.59 1004.07 1004.63 1005.24 1005.89 1006.53 1007.16 1007.74 1008.26 1008.72 1009.13 1009.49 1009.83 1010.16 1010.50 1010.85 1011.22
997.53 997.29 997.09 996.94 996.86 996.84 996.92 997.11 997.41 997.82 998.33 998.91 999.54 1000.17 1000.76 1001.29 1001.72 1002.04 1002.26 1002.38 1002.44 1002.46 1002.49 1002.56 1002.70 1002.95 1003.30 1003.75 1004.30 1004.91 1005.57 1006.22 1006.86 1007.45 1007.98 1008.46 1008.88 1009.26 1009.61 1009.95 1010.30 1010.67 1011.06
996.88 996.66 996.51 996.42 996.39 996.43 996.57 996.81 997.16 997.61 998.16 998.78 999.44 1000.09 1000.71 1001.26 1001.70 1002.03 1002.24 1002.35 1002.38 1002.37 1002.37 1002.41 1002.52 1002.73 1003.06 1003.50 1004.03 1004.64 1005.29 1005.94 1006.58 1007.18 1007.71 1008.19 1008.62 1009.00 1009.36 1009.71 1010.07 1010.44 1010.83
996.61 996.42 996.31 996.26 996.27 996.36 996.53 996.79 997.16 997.62 998.17 998.79 999.44 1000.09 1000.70 1001.23 1001.67 1001.99 1002.19 1002.29 1002.31 1002.30 1002.28 1002.30 1002.39 1002.59 1002.90 1003.32 1003.84 1004.44 1005.07 1005.72 1006.35 1006.93 1007.46 1007.93 1008.35 1008.73 1009.08 1009.43 1009.79 1010.15 1010.54
996.69 996.53 996.45 996.42 996.46 996.57 996.75 997.01 997.36 997.80 998.32 998.89 999.51 1000.12 1000.70 1001.20 1001.62 1001.93 1002.13 1002.23 1002.26 1002.24 1002.23 1002.26 1002.35 1002.54 1002.84 1003.25 1003.75 1004.32 1004.93 1005.55 1006.16 1006.72 1007.23 1007.69 1008.09 1008.46 1008.80 1009.14 1009.47 1009.82 1010.18
997.04 996.90 996.83 996.81 996.85 996.95 997.12 997.35 997.66 998.05 998.51 999.02 999.57 1000.13 1000.66 1001.13 1001.53 1001.83 1002.04 1002.15 1002.20 1002.21 1002.23 1002.27 1002.38 1002.58 1002.87 1003.27 1003.74 1004.28 1004.86 1005.45 1006.02 1006.55 1007.03 1007.46 1007.84 1008.18 1008.50 1008.82 1009.13 1009.45 1009.78
997.50 997.36 997.29 997.27 997.30 997.38 997.50 997.69 997.94 998.26 998.64 999.09 999.57 1000.06 1000.54 1000.98 1001.36 1001.66 1001.88 1002.03 1002.12 1002.18 1002.23 1002.31 1002.45 1002.66 1002.96 1003.34 1003.79 1004.30 1004.84 1005.38 1005.91 1006.40 1006.85 1007.24 1007.59 1007.91 1008.20 1008.48 1008.76 1009.04 1009.33
997.95 997.80 997.72 997.68 997.67 997.71 997.79 997.92 998.10 998.35 998.66 999.03 999.44 999.87 1000.30 1000.72 1001.08 1001.40 1001.65 1001.83 1001.98 1002.09 1002.20 1002.33 1002.51 1002.74 1003.05 1003.42 1003.85 1004.33 1004.83 1005.33 1005.82 1006.26 1006.67 1007.03 1007.34 1007.62 1007.88 1008.13 1008.37 1008.62 1008.87
998.30 998.13 998.02 997.94 997.90 997.90 997.93 998.00 998.12 998.30 998.54 998.84 999.18 999.56 999.95 1000.34 1000.71 1001.03 1001.32 1001.56 1001.76 1001.93 1002.11 1002.30 1002.52 1002.79 1003.11 1003.49 1003.91 1004.36 1004.83 1005.29 1005.73 1006.14 1006.50 1006.82 1007.10 1007.35 1007.57 1007.78 1007.99 1008.20 1008.42
Thickness
5651 5651 5651 5653 5655 5657 5660 5663 5666 5670 5674 5678 5681 5683 5686 5688 5690 5691 5692 5693 5694 5695 5695 5695 5694 5694 5692 5691 5690 5689 5687 5684 5678 5677 5678 5677 5677 5675 5673 5671 5669 5668 5665
5633 5633 5633 5634 5635 5638 5642 5645 5649 5653 5658 5663 5667 5671 5675 5679 5682 5684 5685 5688 5688 5689 5690 5690 5689 5690 5688 5688 5688 5687 5686 5684 5678 5670 5667 5667 5667 5666 5663 5661 5659 5657 5654
5616 5615 5614 5614 5615 5618 5621 5625 5629 5634 5640 5646 5652 5657 5662 5667 5671 5675 5678 5681 5682 5683 5685 5684 5684 5684 5683 5683 5683 5684 5684 5682 5677 5668 5662 5660 5657 5656 5654 5651 5649 5646 5645
5599 5598 5597 5596 5598 5600 5603 5606 5611 5615 5621 5627 5635 5641 5647 5654 5660 5665 5669 5673 5675 5676 5678 5678 5678 5677 5676 5677 5678 5679 5679 5675 5669 5663 5657 5652 5650 5647 5645 5642 5639 5638 5637
5578 5578 5579 5580 5581 5583 5585 5589 5593 5597 5603 5609 5616 5624 5632 5639 5647 5653 5657 5663 5666 5668 5669 5670 5670 5669 5669 5670 5672 5673 5671 5667 5661 5655 5650 5645 5642 5640 5638 5636 5634 5632 5630
5562 5561 5562 5563 5564 5566 5568 5571 5575 5579 5584 5591 5597 5605 5614 5623 5631 5637 5644 5651 5656 5659 5659 5660 5660 5660 5660 5662 5664 5665 5664 5660 5654 5649 5644 5640 5636 5635 5633 5633 5630 5628 5623
5554 5554 5553 5554 5555 5555 5556 5558 5560 5562 5566 5572 5579 5587 5596 5605 5613 5621 5628 5636 5644 5648 5650 5651 5653 5652 5652 5653 5653 5654 5652 5650 5649 5645 5639 5635 5632 5631 5628 5627 5626 5625 5624
5546 5546 5545 5546 5547 5548 5549 5549 5548 5548 5549 5553 5558 5567 5578 5588 5597 5607 5613 5621 5630 5636 5641 5643 5643 5643 5644 5645 5644 5643 5641 5639 5638 5636 5633 5629 5628 5627 5627 5625 5624 5622 5621
5537 5536 5536 5537 5538 5539 5540 5541 5540 5539 5538 5539 5544 5551 5560 5570 5579 5590 5598 5607 5616 5624 5630 5634 5635 5635 5635 5637 5636 5633 5631 5628 5628 5627 5624 5622 5621 5622 5622 5620 5618 5615 5612
5528 5527 5527 5527 5528 5530 5532 5532 5532 5531 5531 5531 5535 5540 5546 5554 5562 5572 5581 5593 5604 5613 5619 5624 5627 5627 5626 5628 5628 5627 5623 5620 5619 5617 5615 5615 5616 5616 5616 5616 5615 5613 5610
5518 5517 5517 5518 5518 5520 5522 5523 5523 5523 5523 5525 5527 5531 5536 5542 5548 5556 5565 5577 5590 5601 5609 5613 5616 5616 5618 5619 5620 5620 5618 5616 5613 5612 5610 5610 5610 5610 5609 5610 5612 5612 5610
5508 5507 5508 5509 5510 5514 5515 5516 5516 5516 5516 5518 5521 5524 5529 5534 5537 5544 5552 5562 5574 5586 5598 5606 5607 5607 5609 5610 5611 5611 5610 5610 5609 5606 5604 5603 5602 5601 5601 5602 5604 5607 5608
5497 5499 5500 5501 5503 5504 5506 5507 5509 5510 5511 5514 5517 5521 5524 5528 5529 5533 5541 5551 5563 5574 5586 5595 5597 5598 5600 5602 5601 5602 5603 5604 5603 5601 5599 5598 5597 5595 5594 5595 5597 5600 5602
5488 5490 5492 5494 5496 5498 5499 5501 5503 5505 5507 5510 5513 5517 5520 5522 5523 5526 5533 5542 5553 5566 5576 5582 5586 5589 5594 5594 5593 5594 5598 5600 5599 5598 5596 5592 5590 5589 5589 5591 5592 5594 5593
5481 5483 5485 5488 5490 5492 5495 5497 5499 5502 5504 5506 5508 5511 5514 5516 5519 5522 5528 5537 5548 5558 5564 5572 5578 5582 5586 5587 5588 5590 5593 5595 5595 5594 5591 5588 5586 5586 5587 5590 5591 5591 5590
5473 5476 5479 5482 5485 5488 5491 5494 5497 5499 5500 5502 5504 5507 5509 5509 5510 5514 5520 5529 5539 5547 5556 5567 5575 5581 5583 5584 5585 5587 5589 5590 5591 5590 5588 5586 5586 5586 5588 5590 5591 5590 5589
5469 5472 5475 5479 5482 5486 5489 5493 5497 5498 5497 5498 5500 5502 5504 5503 5504 5508 5515 5522 5532 5540 5551 5564 5573 5578 5581 5582 5584 5586 5587 5587 5588 5587 5586 5586 5586 5587 5587 5588 5590 5590 5589
5470 5472 5475 5478 5482 5486 5491 5495 5499 5502 5503 5503 5498 5497 5498 5499 5501 5505 5511 5519 5528 5537 5551 5563 5571 5577 5580 5582 5583 5584 5584 5584 5584 5584 5585 5585 5586 5586 5586 5587 5589 5589 5588
5472 5474 5477 5481 5485 5489 5494 5499 5503 5506 5507 5507 5504 5496 5494 5495 5496 5502 5510 5523 5533 5542 5554 5564 5572 5576 5579 5581 5582 5582 5582 5581 5581 5583 5584 5585 5585 5585 5585 5587 5586 5585 5586
5477 5477 5480 5484 5488 5493 5499 5503 5507 5509 5509 5509 5508 5504 5499 5499 5501 5504 5513 5526 5536 5547 5557 5565 5572 5576 5578 5580 5581 5581 5580 5579 5581 5582 5583 5584 5584 5585 5585 5585 5584 5582 5582
5484 5485 5485 5491 5495 5500 5504 5508 5511 5512 5513 5512 5512 5510 5507 5509 5509 5513 5520 5530 5539 5549 5558 5565 5571 5576 5579 5581 5581 5581 5580 5580 5581 5583 5583 5583 5583 5584 5585 5584 5582 5580 5580
5494 5496 5498 5501 5503 5506 5509 5512 5514 5516 5517 5516 5513 5510 5508 5515 5517 5520 5527 5534 5543 5551 5559 5565 5571 5577 5580 5582 5582 5582 5581 5581 5581 5583 5582 5582 5583 5583 5583 5582 5580 5579 5578
5505 5507 5508 5509 5510 5510 5514 5516 5518 5519 5519 5519 5518 5517 5517 5523 5525 5528 5534 5540 5547 5554 5561 5567 5573 5577 5581 5584 5585 5585 5585 5583 5583 5584 5583 5582 5582 5582 5581 5580 5579 5577 5575
5518 5518 5518 5519 5519 5520 5520 5521 5523 5524 5525 5525 5525 5527 5528 5532 5535 5538 5542 5547 5552 5558 5564 5570 5575 5579 5583 5585 5587 5588 5589 5588 5586 5585 5584 5582 5580 5579 5579 5577 5576 5574 5571
5528 5528 5528 5528 5528 5528 5527 5528 5529 5530 5531 5532 5533 5534 5537 5540 5544 5547 5550 5555 5559 5564 5569 5573 5578 5582 5584 5586 5587 5588 5588 5587 5586 5584 5582 5581 5579 5578 5576 5575 5572 5570 5568
5538 5537 5536 5536 5535 5535 5535 5535 5536 5537 5538 5540 5542 5544 5547 5550 5553 5556 5559 5563 5566 5570 5574 5578 5581 5584 5586 5586 5586 5584 5584 5583 5582 5581 5580 5578 5577 5575 5574 5572 5570 5568 5565